Windom, MN

5:47 AM CDT on May 29, 2017 (GMT -0500)
Windom Municipal

Weather History for KMWM - February, 2014

Change the Weather History Date:

Tuesday, February 4, 2014

  Actual Average Record
Temperature  
Mean Temperature 3 °F -  
Max Temperature 8 °F 22 °F 57 °F (2005)
Min Temperature -2 °F 6 °F -24 °F (1989)
Degree Days  
Heating Degree Days 62    
Moisture  
Dew Point -4 °F    
Average Humidity 74    
Maximum Humidity 92    
Minimum Humidity 66    
Precipitation  
Precipitation 0.00 in - - ()
Sea Level Pressure  
Sea Level Pressure 30.38 in    
Wind  
Wind Speed 14 mph (NNW)    
Max Wind Speed 25 mph    
Max Gust Speed 30 mph    
Visibility 10 miles    
Events Snow    
Averages and records for this station are not official NWS values.
T = Trace of Precipitation, MM = Missing Value Source: NWS Daily Summary

Daily Weather History Graph

Daily Weather History Graph

Search for Another Location

Airport or City:

Trip Planner

Search our weather history database for the weather conditions in past years. The results will help you decide how hot, cold, wet, or windy it might be!

Date:

Astronomy

Feb. 04, 2014 Rise Set
Actual Time 7:34 AM CST 5:35 PM CST
Civil Twilight 7:03 AM CST 6:05 PM CST
Nautical Twilight 6:29 AM CST 6:39 PM CST
Astronomical Twilight 5:55 AM CST 7:13 PM CST
Moon 10:00 AM CST (2/4) 11:44 PM CST (2/4)
Length of Visible Light 11h 01m
Length of Day
10h 01m
Waxing Crescent, 29% of the Moon is Illuminated
Feb 4
Waxing Crescent
Feb 6
First Quarter
Feb 14
Full
Feb 22
Last Quarter
Mar 1
New

Hourly Weather History & Observations

Time (CST) Temp. Windchill Dew Point Humidity Pressure Visibility Wind Dir Wind Speed Gust Speed Precip Events Conditions
12:12 AM 3.2 °F -7.8 °F -0.4 °F 85% 30.32 in 10.0 mi North 5.8 mph - N/A   Overcast
12:32 AM 5.0 °F -5.6 °F -0.4 °F 78% 30.32 in 10.0 mi North 5.8 mph - N/A   Overcast
12:53 AM 6.8 °F -4.8 °F 1.4 °F 79% 30.32 in 10.0 mi North 6.9 mph - N/A   Overcast
1:12 AM 6.8 °F -2.0 °F 1.4 °F 79% 30.32 in 10.0 mi North 4.6 mph - N/A   Overcast
1:32 AM 8.6 °F -2.6 °F 1.4 °F 73% 30.33 in 10.0 mi North 6.9 mph - N/A Snow Light Snow
1:52 AM 8.6 °F 0.1 °F 3.2 °F 79% 30.34 in 10.0 mi NNW 4.6 mph - N/A Snow Light Snow
2:12 AM 8.6 °F 0.1 °F 3.2 °F 79% 30.34 in 10.0 mi North 4.6 mph - N/A Snow Light Snow
2:33 AM 8.6 °F -1.3 °F 3.2 °F 79% 30.35 in 10.0 mi North 5.8 mph - N/A Snow Light Snow
2:52 AM 8.6 °F 0.1 °F 3.2 °F 79% 30.35 in 10.0 mi NNE 4.6 mph - N/A Snow Light Snow
3:12 AM 8.6 °F -2.6 °F 3.2 °F 79% 30.34 in 7.0 mi North 6.9 mph - N/A Snow Light Snow
3:33 AM 8.6 °F -3.7 °F 3.2 °F 79% 30.34 in 10.0 mi North 8.1 mph - N/A   Overcast
3:52 AM 8.6 °F -3.7 °F 3.2 °F 79% 30.35 in 10.0 mi NNW 8.1 mph - N/A   Overcast
4:12 AM 6.8 °F -7.8 °F 1.4 °F 79% 30.35 in 10.0 mi NNW 10.4 mph - N/A   Overcast
4:33 AM 5.0 °F -10.0 °F 1.4 °F 85% 30.36 in 10.0 mi NNW 10.4 mph - N/A   Mostly Cloudy
4:52 AM 5.0 °F -11.6 °F 1.4 °F 85% 30.36 in 10.0 mi NNW 12.7 mph - N/A   Scattered Clouds
5:12 AM 3.2 °F -14.6 °F 1.4 °F 92% 30.36 in 10.0 mi NNW 13.8 mph - N/A   Scattered Clouds
5:33 AM 3.2 °F -14.6 °F -0.4 °F 85% 30.36 in 10.0 mi NNW 13.8 mph - N/A   Scattered Clouds
5:52 AM 1.4 °F -16.9 °F -0.4 °F 92% 30.37 in 10.0 mi NNW 13.8 mph - N/A   Clear
6:12 AM 1.4 °F -18.2 °F -2.2 °F 85% 30.37 in 10.0 mi NNW 16.1 mph - N/A   Clear
6:33 AM 1.4 °F -18.2 °F -2.2 °F 85% 30.37 in 10.0 mi NNW 16.1 mph - N/A   Clear
6:52 AM 1.4 °F -17.6 °F -2.2 °F 85% 30.38 in 10.0 mi NNW 15.0 mph - N/A   Clear
7:12 AM -0.4 °F -20.5 °F -4.0 °F 85% 30.39 in 10.0 mi NNW 16.1 mph - N/A   Scattered Clouds
7:33 AM -0.4 °F -20.5 °F -5.8 °F 78% 30.39 in 10.0 mi NNW 16.1 mph - N/A   Scattered Clouds
7:52 AM -0.4 °F -21.7 °F -5.8 °F 78% 30.40 in 10.0 mi NNW 18.4 mph - N/A   Scattered Clouds
8:12 AM -0.4 °F -21.2 °F -5.8 °F 78% 30.40 in 10.0 mi NNW 17.3 mph - N/A   Mostly Cloudy
8:33 AM -0.4 °F -20.5 °F -5.8 °F 78% 30.41 in 10.0 mi NNW 16.1 mph - N/A   Scattered Clouds
8:52 AM -2.2 °F -23.5 °F -5.8 °F 85% 30.41 in 10.0 mi NNW 17.3 mph - N/A   Clear
9:12 AM -0.4 °F -20.5 °F -5.8 °F 78% 30.41 in 10.0 mi North 16.1 mph - N/A   Clear
9:33 AM -0.4 °F -19.9 °F -5.8 °F 78% 30.42 in 10.0 mi North 15.0 mph - N/A   Clear
9:52 AM -0.4 °F -21.2 °F -7.6 °F 72% 30.41 in 10.0 mi North 17.3 mph - N/A   Clear
10:12 AM -0.4 °F -21.7 °F -7.6 °F 72% 30.41 in 10.0 mi North 18.4 mph - N/A   Clear
10:33 AM 1.4 °F -19.9 °F -7.6 °F 66% 30.41 in 10.0 mi North 19.6 mph - N/A   Clear
10:52 AM 1.4 °F -20.5 °F -7.6 °F 66% 30.41 in 10.0 mi North 20.7 mph - N/A   Clear
11:12 AM 1.4 °F -19.4 °F -7.6 °F 66% 30.41 in 10.0 mi North 18.4 mph - N/A   Clear
11:33 AM 1.4 °F -19.9 °F -7.6 °F 66% 30.41 in 10.0 mi North 19.6 mph - N/A   Clear
11:52 AM 1.4 °F -19.9 °F -5.8 °F 72% 30.41 in 10.0 mi North 19.6 mph - N/A   Clear
12:12 PM 3.2 °F -18.1 °F -5.8 °F 66% 30.41 in 10.0 mi North 20.7 mph - N/A   Scattered Clouds
12:33 PM 3.2 °F -18.6 °F -5.8 °F 66% 30.39 in 10.0 mi North 21.9 mph - N/A   Mostly Cloudy
12:52 PM 3.2 °F -18.1 °F -5.8 °F 66% 30.40 in 10.0 mi North 20.7 mph - N/A   Overcast
1:12 PM 3.2 °F -18.1 °F -5.8 °F 66% 30.38 in 10.0 mi North 20.7 mph - N/A   Overcast
1:33 PM 3.2 °F -18.1 °F -5.8 °F 66% 30.39 in 10.0 mi North 20.7 mph - N/A   Overcast
1:52 PM 3.2 °F -19.0 °F -5.8 °F 66% 30.37 in 10.0 mi North 23.0 mph - N/A   Overcast
2:12 PM 3.2 °F -19.0 °F -5.8 °F 66% 30.37 in 10.0 mi NNW 23.0 mph - N/A   Overcast
2:33 PM 3.2 °F -18.1 °F -5.8 °F 66% 30.38 in 10.0 mi North 20.7 mph - N/A   Overcast
2:52 PM 3.2 °F -19.0 °F -5.8 °F 66% 30.37 in 10.0 mi NNW 23.0 mph - N/A   Overcast
3:12 PM 3.2 °F -18.6 °F -5.8 °F 66% 30.37 in 10.0 mi North 21.9 mph 27.6 mph N/A   Overcast
3:33 PM 3.2 °F -17.6 °F -5.8 °F 66% 30.38 in 10.0 mi North 19.6 mph 25.3 mph N/A   Overcast
3:52 PM 3.2 °F -18.6 °F -5.8 °F 66% 30.39 in 10.0 mi North 21.9 mph - N/A   Overcast
4:12 PM 3.2 °F -17.1 °F -5.8 °F 66% 30.38 in 10.0 mi North 18.4 mph - N/A   Overcast
4:33 PM 1.4 °F -21.4 °F -5.8 °F 72% 30.38 in 10.0 mi North 23.0 mph - N/A   Scattered Clouds
4:52 PM 1.4 °F -20.5 °F -5.8 °F 72% 30.38 in 10.0 mi North 20.7 mph - N/A   Clear
5:12 PM 1.4 °F -19.9 °F -5.8 °F 72% 30.38 in 10.0 mi North 19.6 mph - N/A   Clear
5:33 PM 1.4 °F -20.5 °F -7.6 °F 66% 30.37 in 10.0 mi North 20.7 mph - N/A   Clear
5:52 PM 1.4 °F -21.4 °F -7.6 °F 66% 30.38 in 10.0 mi North 23.0 mph - N/A   Mostly Cloudy
6:12 PM 1.4 °F -21.4 °F -7.6 °F 66% 30.38 in 10.0 mi North 23.0 mph - N/A   Overcast
6:33 PM 1.4 °F -20.5 °F -7.6 °F 66% 30.39 in 10.0 mi North 20.7 mph - N/A   Overcast
6:52 PM 1.4 °F -20.5 °F -7.6 °F 66% 30.40 in 10.0 mi NNW 20.7 mph - N/A   Overcast
7:12 PM 1.4 °F -21.9 °F -5.8 °F 72% 30.40 in 10.0 mi NNW 24.2 mph - N/A   Overcast
7:33 PM -0.4 °F -24.3 °F -7.6 °F 72% 30.40 in 10.0 mi NNW 24.2 mph 27.6 mph N/A   Overcast
7:52 PM -0.4 °F -23.3 °F -7.6 °F 72% 30.40 in 10.0 mi NNW 21.9 mph - N/A   Overcast
8:12 PM -0.4 °F -23.3 °F -7.6 °F 72% 30.41 in 10.0 mi NNW 21.9 mph - N/A   Overcast
8:33 PM -0.4 °F -24.7 °F -7.6 °F 72% 30.41 in 10.0 mi NNW 25.3 mph 29.9 mph N/A   Overcast
8:52 PM -0.4 °F -23.8 °F -7.6 °F 72% 30.40 in 10.0 mi NNW 23.0 mph - N/A   Overcast
9:12 PM -0.4 °F -22.8 °F -7.6 °F 72% 30.41 in 10.0 mi NNW 20.7 mph 27.6 mph N/A   Overcast
9:33 PM -0.4 °F -24.7 °F -7.6 °F 72% 30.40 in 10.0 mi NNW 25.3 mph 29.9 mph N/A   Overcast
9:52 PM -2.2 °F -27.1 °F -9.4 °F 71% 30.41 in 10.0 mi NNW 25.3 mph - N/A   Overcast
10:12 PM -2.2 °F -26.7 °F -9.4 °F 71% 30.42 in 10.0 mi NNW 24.2 mph - N/A   Overcast
10:32 PM -2.2 °F -25.7 °F -7.6 °F 78% 30.43 in 10.0 mi NNW 21.9 mph 27.6 mph N/A   Overcast
10:52 PM -2.2 °F -25.7 °F -7.6 °F 78% 30.43 in 10.0 mi NNW 21.9 mph - N/A   Overcast
11:12 PM -2.2 °F -26.2 °F -7.6 °F 78% 30.43 in 10.0 mi NNW 23.0 mph - N/A   Overcast
11:32 PM -2.2 °F -25.7 °F -7.6 °F 78% 30.44 in 10.0 mi NNW 21.9 mph - N/A   Overcast
11:52 PM -2.2 °F -24.1 °F -9.4 °F 71% 30.44 in 10.0 mi NNW 18.4 mph - N/A   Overcast